Regional Weather Roundup
Issued by NWS

Home | Current Version | Previous Version | Graphics & Text | Print | Product List | Glossary On
Versions: 1 2 3 4 5 6 7 8 9 10 11 12 13 14 15 16 17 18 19 20 21 22 23 24 25 26 27 28 29 30 31 32 33 34 35 36 37 38 39 40 41 42 43 44 45 46 47 48 49 50
000
ASUS43 KTOP 200859
RWRKS

WEATHER ROUNDUP FOR KANSAS
NATIONAL WEATHER SERVICE GOODLAND KS
400 AM CDT WED SEP 20 2017

NOTE:  "FAIR" INDICATES FEW OR NO CLOUDS BELOW 12,000 FEET WITH NO
SIGNIFICANT WEATHER AND/OR OBSTRUCTIONS TO VISIBILITY.

KSZ001>006-013>018-027>032-041>047-201000-
NORTHWEST KANSAS

CITY           SKY/WX    TMP DP  RH WIND       PRES   REMARKS
GOODLAND       CLEAR     45  34  65 NW8       29.87S
HAYS           CLEAR     63  41  44 N14       29.75R
HILL CITY      CLEAR     59  41  51 NW8       29.79S
RUSSELL        CLEAR     65  44  46 NW14      29.72R
$$

KSZ061>065-074>080-084>089-201000-
SOUTHWEST KANSAS

CITY           SKY/WX    TMP DP  RH WIND       PRES   REMARKS
DODGE CITY     CLEAR     61  38  42 N14       29.76S
ELKHART          N/A     56  39  53 N8          N/A
GARDEN CITY    CLEAR     57  33  40 N15       29.80R
GREAT BEND     CLEAR     67  43  41 NW12G18   29.73R
LIBERAL        PTCLDY    60  39  45 N17       29.79R
$$

KSZ066>073-081>083-090>101-201000-
SOUTHEAST KANSAS

CITY           SKY/WX    TMP DP  RH WIND       PRES   REMARKS
CHANUTE        CLEAR     75  70  84 S13       29.76F
COFFEYVILLE    CLEAR     77  71  82 S16G22    29.76S
HUTCHINSON     CLOUDY    77  63  61 S18       29.66F
MEDICINE LODGE   N/A     77  61  57 S17G23    29.66F
NEWTON         CLOUDY    76  67  73 S20G26    29.69F
WICHITA INTL   MOCLDY    76  68  76 S17       29.69F
WICHITA JABRA  CLOUDY    76  70  82 S16G24    29.69F
WINFIELD       PTCLDY    76  70  82 S14       29.73F
$$

KSZ007>012-019>026-033>040-048>060-102>105-201000-
NORTHEAST KANSAS

CITY           SKY/WX    TMP DP  RH WIND       PRES   REMARKS
CONCORDIA      CLEAR     74  60  61 W9        29.67R
EMPORIA        MOCLDY    74  68  81 S21G28    29.69F
LAWRENCE       PTCLDY    77  70  79 S12       29.69F
MANHATTAN      CLOUDY    79  70  74 S14       29.65S
OLATHE IND     CLOUDY    75  69  81 S14       29.73S
OLATHE EXE     CLEAR     74  70  87 S13G20    29.73F
SALINA         CLEAR     80  63  55 SW13      29.68R
TOPEKA BILLARD CLOUDY    78  71  79 S16G24    29.67F
TOPEKA FORBES  CLOUDY    78  70  76 S15       29.69S
$$




USA.gov is the U.S. government's official web portal to all federal, state and local government web resources and services.